TimeNDT,TemperatureF,Dew PointF,Humidity,Sea Level PressureIn,VisibilityMPH,Wind Direction,Wind SpeedMPH,Gust SpeedMPH,PrecipitationIn,Events,Conditions,WindDirDegrees,DateUTC
12:30 AM,48,45,86,30.12,,SE,9.2,,,,,130,2012-11-01 03:00:00
12:30 AM,48.2,45.1,89,30.12,-9999.0,SE,9.2,-,N/A,,Unknown,130,2012-11-01 03:00:00
1:30 AM,47.7,45.7,93,30.12,-9999.0,SE,8.1,-,N/A,,Unknown,140,2012-11-01 04:00:00
2:30 AM,47.7,45.7,93,30.11,-9999.0,SE,8.1,-,N/A,,Unknown,140,2012-11-01 05:00:00
3:30 AM,48,46,88,30.09,,SE,6.9,,,,,140,2012-11-01 06:00:00
3:30 AM,47.7,45.5,92,30.09,-9999.0,SE,6.9,-,N/A,,Unknown,140,2012-11-01 06:00:00
4:30 AM,47.5,45.5,93,30.07,-9999.0,ESE,4.6,-,N/A,,Unknown,110,2012-11-01 07:00:00
5:30 AM,47.8,45.9,93,30.06,-9999.0,NNE,4.6,-,N/A,,Unknown,30,2012-11-01 08:00:00
6:30 AM,47,46,96,30.04,,NE,4.6,,,,,40,2012-11-01 09:00:00
6:30 AM,47.5,46.2,95,30.04,-9999.0,NE,4.6,-,N/A,,Unknown,40,2012-11-01 09:00:00
7:30 AM,47.8,46.8,96,30.03,-9999.0,ENE,4.6,-,N/A,,Unknown,70,2012-11-01 10:00:00
8:30 AM,48.6,47.7,97,30.03,-9999.0,ESE,11.5,-,N/A,,Unknown,120,2012-11-01 11:00:00
9:30 AM,49,48,96,30.03,,ESE,12.7,,,,,120,2012-11-01 12:00:00
9:30 AM,48.7,48.2,98,30.03,-9999.0,ESE,12.7,-,N/A,,Unknown,120,2012-11-01 12:00:00
10:30 AM,48.7,47.8,97,30.03,-9999.0,SE,11.5,-,N/A,,Unknown,130,2012-11-01 13:00:00
11:30 AM,49.1,48.0,96,30.03,-9999.0,SSE,11.5,-,N/A,,Unknown,150,2012-11-01 14:00:00
12:30 PM,49,48,94,30.01,,ESE,13.8,,,,,120,2012-11-01 15:00:00
12:30 PM,48.7,47.8,97,30.01,-9999.0,ESE,13.8,19.6,N/A,,Unknown,120,2012-11-01 15:00:00
1:30 PM,49.3,48.6,97,30.00,-9999.0,ESE,8.1,-,N/A,,Unknown,120,2012-11-01 16:00:00
2:30 PM,49.1,48.4,97,29.98,-9999.0,East,5.8,-,N/A,,Unknown,80,2012-11-01 17:00:00
3:30 PM,49,49,98,29.98,,East,8.1,,,,,90,2012-11-01 18:00:00
3:30 PM,49.1,48.6,98,29.98,-9999.0,East,8.1,-,N/A,,Unknown,90,2012-11-01 18:00:00
4:30 PM,49.1,48.6,98,29.96,-9999.0,ESE,8.1,-,N/A,,Unknown,110,2012-11-01 19:00:00
5:30 PM,49.1,48.6,98,29.94,-9999.0,SE,12.7,-,N/A,,Unknown,130,2012-11-01 20:00:00
6:30 PM,49,49,98,29.93,,SE,15.0,,,,,130,2012-11-01 21:00:00
6:30 PM,48.9,48.6,99,29.93,-9999.0,SE,15.0,-,N/A,,Unknown,130,2012-11-01 21:00:00
7:30 PM,49.5,49.1,99,29.93,-9999.0,SE,17.3,-,N/A,,Unknown,130,2012-11-01 22:00:00
8:30 PM,49.3,48.9,99,29.91,-9999.0,ESE,17.3,25.3,N/A,,Unknown,120,2012-11-01 23:00:00
9:30 PM,49,49,100,29.92,,ESE,17.3,,,,,120,2012-11-02 00:00:00
9:30 PM,49.3,49.1,99,29.92,-9999.0,ESE,17.3,23.0,N/A,,Unknown,120,2012-11-02 00:00:00
10:30 PM,49.5,49.3,99,29.89,-9999.0,ESE,19.6,25.3,N/A,,Unknown,110,2012-11-02 01:00:00
11:30 PM,49.5,49.3,99,29.88,-9999.0,SE,18.4,26.5,N/A,,Unknown,130,2012-11-02 02:00:00